Location: Keppel Henge
(44.7900°N, 80.9447°W)
Time: 01:56:08
(UTC-04:00)

Tiangong 2 - Pass Details

Date: 15 October 2017
Orbit: 388 x 392 km, 42.8° (Epoch: 17 October)

Event Time Altitude Azimuth Distance (km) Brightness Sun altitude
Exits shadow 05:35:48 38° 116° (ESE) 607 2.4 -22.6°
Drops below altitude 10° 05:38:01 10° 97° (E) 1,421 4.9 -22.3°
Sets 05:40:07 0° 93° (E) 2,278 6.4 -21.9°
